Location: Iesi
(43.5167°N, 13.2333°E)
Time: 02:12:11
(UTC+00:00)

Cosmos 1802 Rocket - Pass Details

Date: 08 August 2020
Orbit: 953 x 1012 km, 82.9° (Epoch: 19 September)

Event Time Altitude Azimuth Distance (km) Brightness Sun altitude
Exits shadow 21:13:53 47° 109° (ESE) 1,314 4.3 -24.7°
Maximum altitude 21:14:33 49° 90° (E) 1,286 4.4 -24.8°
Drops below altitude 10° 21:20:38 10° 18° (NNE) 2,778 6.9 -25.4°
Sets 21:23:14 0° 14° (NNE) 3,724 7.7 -25.6°
